"2010-02-24 00:00:00",1708119,6.103,171.8,5.904,1.172,1.211,99.95304,-0.819,0.452,38.23,0,109.7,13.51,-0.07,133.8
"2010-02-24 00:00:30",1708120,6.766,175.3,5.68,1.062,3.478,99.93551,-0.864,0.499,37.46,0,109.7,13.51,-0.12,137.3
"2010-02-24 00:01:00",1708121,7.472,176.8,4.344,0.421,4.242,99.92476,-0.891,0.456,37.55,0,109.7,13.51,-0.14,138.8
"2010-02-24 00:01:30",1708122,7.377,177.9,3.469,0.625,4.357,99.92646,-0.887,0.531,36.85,0,109.7,13.51,-0.14,139.9
"2010-02-24 00:02:00",1708123,6.901,174.2,5.38,1.07,3.165,99.92646,-0.887,0.47,37.24,0,109.7,13.51,-0.14,136.2
"2010-02-24 00:02:30",1708124,6.052,169.7,6.164,1.084,1.581,99.92872,-0.881,0.399,37.75,0,109.6,13.51,-0.13,131.7
"2010-02-24 00:03:00",1708125,6.734,172.5,5.641,1.113,2.769,99.93154,-0.874,0.385,37.37,0,109.7,13.51,-0.13,134.5
"2010-02-24 00:03:30",1708126,6.936,172.8,5.926,1.044,3.121,99.92588,-0.889,0.41,37.53,0,109.7,13.51,-0.14,134.8
"2010-02-24 00:04:00",1708127,6.679,174.4,5.21,1.127,3.689,99.9157,-0.914,0.45,38.08,0,109.7,13.51,-0.17,136.4
"2010-02-24 00:04:30",1708128,6.907,177,4.851,1.016,3.755,99.90609,-0.939,0.42,37.78,0,109.7,13.51,-0.19,139.0
"2010-02-24 00:05:00",1708129,7.129,175.1,4.952,0.83,3.632,99.89902,-0.957,0.386,37.92,0,109.7,13.51,-0.21,137.1
"2010-02-24 00:05:30",1708130,7.216,175.4,4.205,0.639,4.103,99.89817,-0.959,0.41,38.32,0,109.7,13.51,-0.21,137.4
"2010-02-24 00:06:00",1708131,6.161,171.9,6.082,1.172,1.855,99.89817,-0.959,0.327,38.3,0,109.7,13.52,-0.21,133.9
"2010-02-24 00:06:30",1708132,6.55,172.7,6.705,1.162,2.2,99.89817,-0.959,0.216,38.12,0,109.7,13.52,-0.21,134.7
"2010-02-24 00:07:00",1708133,6.329,172.4,6.366,1.191,1.799,99.89788,-0.96,0.237,37.72,0,109.7,13.52,-0.21,134.4
"2010-02-24 00:07:30",1708134,6.716,177.1,5.239,1.074,4.071,99.88741,-0.987,0.353,37.82,0,109.6,13.53,-0.24,139.1
"2010-02-24 00:08:00",1708135,7.008,176.9,5.473,1.072,3.383,99.87836,-1.01,0.345,37.8,0,109.7,13.53,-0.26,138.9
"2010-02-24 00:08:30",1708136,7.411,179.6,3.435,0.645,4.252,99.86874,-1.034,0.385,37.77,0,109.7,13.53,-0.29,141.6
"2010-02-24 00:09:00",1708137,6.704,176.7,5.505,1.124,3.264,99.86422,-1.046,0.322,37.62,0,109.7,13.53,-0.30,138.7
"2010-02-24 00:09:30",1708138,6.769,177.5,5.443,1.081,2.829,99.86422,-1.046,0.271,37.51,0,109.7,13.53,-0.30,139.5
"2010-02-24 00:10:00",1708139,5.827,171.8,5.424,1.124,0.768,99.86422,-1.046,0.053,37.27,0,109.7,13.53,-0.30,133.8
"2010-02-24 00:10:30",1708140,6.077,175.2,6.475,1.177,2.007,99.86365,-1.047,0.266,37.24,0,109.7,13.53,-0.30,137.2
"2010-02-24 00:11:00",1708141,6.623,177.7,5.762,1.209,3.682,99.85771,-1.062,0.254,36.74,0,109.6,13.53,-0.31,139.7
"2010-02-24 00:11:30",1708142,7.098,181.1,4.807,0.98,4.134,99.843,-1.1,0.263,36.53,0,109.6,13.53,-0.35,143.1
"2010-02-24 00:12:00",1708143,7.145,180.1,4.426,0.645,4.242,99.83678,-1.116,0.306,36.4,0,109.6,13.53,-0.37,142.1
"2010-02-24 00:12:30",1708144,7.089,180.5,3.981,0.771,4.181,99.83056,-1.132,0.292,36.39,0,109.6,13.53,-0.38,142.5
"2010-02-24 00:13:00",1708145,7.042,180.8,3.64,0.761,3.74,99.83028,-1.132,0.296,36.35,0,109.6,13.53,-0.38,142.8
"2010-02-24 00:13:30",1708146,7.183,182.9,4.095,0.562,3.805,99.83028,-1.132,0.266,36.13,0,109.6,13.53,-0.38,144.9
"2010-02-24 00:14:00",1708147,7.158,183.5,3.357,0.557,3.308,99.83028,-1.132,0.247,35.82,0,109.6,13.53,-0.38,145.5
"2010-02-24 00:14:30",1708148,6.417,179.4,6.887,1.205,1.518,99.82886,-1.136,0.12,35.59,0,109.6,13.53,-0.39,141.4
"2010-02-24 00:15:00",1708149,4.916,171,0.538,0.042,-1.138,99.81471,-1.172,-0.067,35.11,0,109.6,13.56,-0.42,133.0
"2010-02-24 00:15:30",1708150,5.38,172,4.406,0.916,-0.211,99.79717,-1.217,-0.066,34.97,0,109.6,13.53,-0.47,134.0
"2010-02-24 00:16:00",1708151,7.072,181.2,3.997,0.851,4.236,99.79633,-1.219,0.219,35.29,0,109.6,13.53,-0.47,143.2
"2010-02-24 00:16:30",1708152,7.175,182.2,4.222,0.761,4.937,99.79662,-1.218,0.218,35.44,0,109.6,13.53,-0.47,144.2
"2010-02-24 00:17:00",1708153,7.232,181,3.582,0.764,4.781,99.79689,-1.217,0.203,35.32,0,109.6,13.53,-0.47,143.0
"2010-02-24 00:17:30",1708154,7.255,181.3,3.26,0.749,4.441,99.79802,-1.214,0.191,35.19,0,109.6,13.53,-0.47,143.3
"2010-02-24 00:18:00",1708155,7.195,181.5,2.735,0.741,3.976,99.79916,-1.212,0.169,35.02,0,109.6,13.53,-0.46,143.5
"2010-02-24 00:18:30",1708156,7.06,179.9,4.711,0.845,3.239,99.79236,-1.229,0.083,34.86,0,109.6,13.53,-0.48,141.9
"2010-02-24 00:19:00",1708157,6.135,176.4,6.701,1.225,1.532,99.78585,-1.245,-0.072,34.73,0,109.6,13.53,-0.50,138.4
"2010-02-24 00:19:30",1708158,5.347,172,4.622,0.762,0.276,99.77933,-1.262,0.005,34.8,0,109.6,13.53,-0.51,134.0
"2010-02-24 00:20:00",1708159,6.958,182.2,4.547,1.051,3.317,99.77086,-1.284,0.132,34.79,0,109.6,13.53,-0.54,144.2
"2010-02-24 00:20:30",1708160,7.281,182.5,4.509,0.68,4.468,99.77311,-1.278,0.12,34.75,0,109.6,13.53,-0.53,144.5
"2010-02-24 00:21:00",1708161,7.37,182.6,4.096,0.552,4.28,99.77425,-1.275,0.104,34.83,0,109.6,13.53,-0.53,144.6
"2010-02-24 00:21:30",1708162,7.011,181.1,5.901,1.049,3.244,99.77678,-1.269,0.037,34.46,0,109.6,13.53,-0.52,143.1
"2010-02-24 00:22:00",1708163,6.574,178.6,5.979,1.198,2.009,99.77621,-1.27,-0.035,34.01,0,109.6,13.53,-0.52,140.6
"2010-02-24 00:22:30",1708164,5.808,174,4.811,1.056,0.732,99.77083,-1.284,-0.091,34.28,0,109.6,13.54,-0.54,136.0
"2010-02-24 00:23:00",1708165,6.52,177.4,5.673,1.172,2.325,99.76262,-1.305,0.031,34.55,0,109.6,13.54,-0.56,139.4
"2010-02-24 00:23:30",1708166,6.955,179.8,4.939,1.083,3.454,99.75893,-1.314,0.021,35.08,0,109.6,13.54,-0.57,141.8
"2010-02-24 00:24:00",1708167,7.374,181.2,4.806,0.725,3.931,99.75186,-1.332,0.011,35.54,0,109.6,13.54,-0.58,143.2
"2010-02-24 00:24:30",1708168,7.225,182.1,4.874,0.878,3.7,99.7544,-1.326,0.004,35.79,0,109.6,13.54,-0.58,144.1
"2010-02-24 00:25:00",1708169,6.609,179.9,5.797,1.138,2.74,99.75525,-1.323,-0.062,35.87,0,109.6,13.54,-0.58,141.9
"2010-02-24 00:25:30",1708170,6.289,181,5.484,1.172,1.558,99.75497,-1.324,-0.121,35.57,0,109.6,13.54,-0.58,143.0
"2010-02-24 00:26:00",1708171,6.63,183.8,6.808,1.243,1.983,99.75439,-1.326,-0.058,35.08,0,109.6,13.54,-0.58,145.8
"2010-02-24 00:26:30",1708172,7.169,184.6,5.732,1.052,2.931,99.75525,-1.323,-0.039,34.31,0,109.6,13.54,-0.58,146.6
"2010-02-24 00:27:00",1708173,7.046,182.9,5.694,1.086,2.795,99.7561,-1.321,-0.076,34.2,0,109.6,13.54,-0.57,144.9
"2010-02-24 00:27:30",1708174,7.209,183.5,5.658,1.013,3.227,99.75891,-1.314,-0.054,33.86,0,109.6,13.54,-0.57,145.5
"2010-02-24 00:28:00",1708175,6.992,182.9,5.699,1.161,3.032,99.75919,-1.313,-0.081,33.76,0,109.6,13.54,-0.57,144.9
"2010-02-24 00:28:30",1708176,7.113,183.4,5.668,1.1,2.986,99.75806,-1.316,-0.086,33.4,0,109.6,13.54,-0.57,145.4
"2010-02-24 00:29:00",1708177,7.24,183.2,5.681,1.021,3.106,99.75127,-1.334,-0.09,34.37,0,109.6,13.54,-0.59,145.2
"2010-02-24 00:29:30",1708178,7.281,183.6,5.627,1.058,2.886,99.74533,-1.349,-0.104,35.07,0,109.6,13.55,-0.60,145.6
"2010-02-24 00:30:00",1708179,7.533,185.1,4.833,0.927,3.39,99.73882,-1.365,-0.078,35.23,0,109.6,13.55,-0.62,147.1
"2010-02-24 00:30:30",1708180,7.034,182.1,5.998,1.15,2.774,99.72891,-1.391,-0.09,34.83,0,109.6,13.55,-0.64,144.1
"2010-02-24 00:31:00",1708181,6.879,182,5.68,1.134,2.857,99.72836,-1.392,-0.161,34.65,0,109.6,13.55,-0.64,144.0
"2010-02-24 00:31:30",1708182,6.819,181.9,5.818,1.13,3.031,99.72836,-1.392,-0.104,34.8,0,109.6,13.55,-0.64,143.9
"2010-02-24 00:32:00",1708183,7.343,184.8,4.476,0.786,3.841,99.72836,-1.392,-0.093,35.14,0,109.6,13.55,-0.64,146.8
"2010-02-24 00:32:30",1708184,6.782,182.1,6.086,1.158,2.96,99.72836,-1.392,-0.092,35.21,0,109.6,13.55,-0.64,144.1
"2010-02-24 00:33:00",1708185,6.993,184.4,4.777,1.082,3.173,99.72836,-1.392,-0.072,35.48,0,109.6,13.54,-0.64,146.4
"2010-02-24 00:33:30",1708186,6.596,180.4,5.8,1.173,1.815,99.72495,-1.401,-0.175,35.79,0,109.6,13.54,-0.65,142.4
"2010-02-24 00:34:00",1708187,6.994,183.5,5.949,1.146,2.931,99.71194,-1.434,-0.209,36.38,0,109.6,13.54,-0.69,145.5
"2010-02-24 00:34:30",1708188,6.844,182.3,5.85,1.082,2.73,99.7009,-1.462,-0.147,36.86,0,109.6,13.54,-0.72,144.3
"2010-02-24 00:35:00",1708189,7.53,188.1,4.291,0.836,3.663,99.69468,-1.478,-0.116,37.25,0,109.6,13.54,-0.73,150.1
"2010-02-24 00:35:30",1708190,7.597,187.2,4.235,0.709,4.221,99.69439,-1.479,-0.101,37.36,0,109.6,13.54,-0.73,149.2
"2010-02-24 00:36:00",1708191,7.518,189.2,3.479,0.751,3.798,99.69439,-1.479,-0.102,37.44,0,109.6,13.54,-0.73,151.2
"2010-02-24 00:36:30",1708192,6.955,188.2,5.453,1.078,2.609,99.69439,-1.479,-0.178,37.25,0,109.5,13.54,-0.73,150.2
"2010-02-24 00:37:00",1708193,6.409,184.4,6.548,1.17,1.509,99.69468,-1.478,-0.256,37.1,0,109.6,13.55,-0.73,146.4
"2010-02-24 00:37:30",1708194,5.696,180.7,4.693,0.889,0.633,99.69298,-1.482,-0.32,37.08,0,109.5,13.55,-0.74,142.7
"2010-02-24 00:38:00",1708195,7.339,189.7,4.411,0.603,4.165,99.68618,-1.5,-0.179,37.29,0,109.5,13.55,-0.75,151.7
"2010-02-24 00:38:30",1708196,7.371,190.5,3.581,0.672,4.168,99.67769,-1.521,-0.171,37.23,0,109.5,13.56,-0.77,152.5
"2010-02-24 00:39:00",1708197,7.309,191,2.893,0.827,4.078,99.66806,-1.546,-0.16,37.41,0,109.5,13.56,-0.80,153.0
"2010-02-24 00:39:30",1708198,7.5,189.8,3.124,0.492,3.733,99.6703,-1.54,-0.156,37.64,0,109.5,13.56,-0.79,151.8
"2010-02-24 00:40:00",1708199,7.256,190.3,3.529,0.742,3.335,99.6799,-1.516,-0.195,37.78,0,109.5,13.56,-0.77,152.3
"2010-02-24 00:40:30",1708200,7.242,190.5,3.658,0.654,3.009,99.68328,-1.507,-0.18,37.44,0,109.5,13.56,-0.76,152.5
"2010-02-24 00:41:00",1708201,5.991,183.9,6.121,1.164,0.216,99.68102,-1.513,-0.41,36.7,0,109.5,13.56,-0.77,145.9
"2010-02-24 00:41:30",1708202,5.409,180.4,4.108,0.829,-0.925,99.67336,-1.532,-0.505,36.44,0,109.5,13.56,-0.79,142.4
"2010-02-24 00:42:00",1708203,5.496,179.2,4.747,0.905,0.144,99.65751,-1.573,-0.437,37.09,0,109.5,13.56,-0.83,141.2
"2010-02-24 00:42:30",1708204,7.182,190.7,2.533,0.825,4.28,99.65637,-1.576,-0.209,37.32,0,109.5,13.57,-0.83,152.7
"2010-02-24 00:43:00",1708205,7.288,190.9,4.318,0.586,4.825,99.65919,-1.568,-0.21,36.78,0,109.5,13.57,-0.82,152.9
"2010-02-24 00:43:30",1708206,7.301,191.3,3.504,0.662,4.337,99.65891,-1.569,-0.244,36.74,0,109.5,13.57,-0.82,153.3
"2010-02-24 00:44:00",1708207,7.207,192,4.072,0.64,4.206,99.65777,-1.572,-0.262,36.59,0,109.5,13.57,-0.83,154.0
"2010-02-24 00:44:30",1708208,6.919,190.6,4.992,0.765,3.28,99.64108,-1.614,-0.387,36.3,0,109.5,13.57,-0.87,152.6
"2010-02-24 00:45:00",1708209,4.927,180.1,2.246,0.622,-0.909,99.62805,-1.648,-0.484,36.07,0,109.5,13.57,-0.90,142.1
"2010-02-24 00:45:30",1708210,5.901,184.5,6.391,1.177,1.348,99.62635,-1.652,-0.53,35.61,0,109.5,13.57,-0.91,146.5
"2010-02-24 00:46:00",1708211,6.098,186.8,6.048,1.106,2.504,99.62635,-1.652,-0.374,35.26,0,109.5,13.57,-0.91,148.8
"2010-02-24 00:46:30",1708212,6.894,192.6,3.297,0.762,4.405,99.62635,-1.652,-0.318,34.76,0,109.5,13.58,-0.91,154.6
"2010-02-24 00:47:00",1708213,7.063,193.1,3.53,0.641,4.363,99.62635,-1.652,-0.327,34.71,0,109.5,13.58,-0.91,155.1
"2010-02-24 00:47:30",1708214,6.813,192.7,4.968,0.932,3.92,99.62579,-1.653,-0.326,34.1,0,109.5,13.58,-0.91,154.7
"2010-02-24 00:48:00",1708215,6.446,192.5,5.472,1.072,2.651,99.60965,-1.695,-0.498,33.5,0,109.5,13.58,-0.95,154.5
"2010-02-24 00:48:30",1708216,4.618,184.8,0.645,0.069,-0.541,99.59494,-1.732,-0.594,32.9,0,109.5,13.58,-0.99,146.8
"2010-02-24 00:49:00",1708217,6.151,194.4,5.713,1.154,2.844,99.59239,-1.739,-0.421,32.47,0,109.5,13.58,-0.99,156.4
"2010-02-24 00:49:30",1708218,6.676,192.4,4.861,1.063,3.662,99.59239,-1.739,-0.408,32.14,0,109.5,13.57,-0.99,154.4
"2010-02-24 00:50:00",1708219,6.995,194.1,3.553,0.827,4.15,99.59239,-1.739,-0.389,32.4,0,109.5,13.58,-0.99,156.1
"2010-02-24 00:50:30",1708220,6.98,196.2,2.641,0.746,4.163,99.59239,-1.739,-0.367,31.82,0,109.5,13.57,-0.99,158.2
"2010-02-24 00:51:00",1708221,6.385,191.1,5.82,1.076,3.22,99.59239,-1.739,-0.431,31.23,0,109.5,13.57,-0.99,153.1
"2010-02-24 00:51:30",1708222,5.94,188.8,6.283,1.179,2.092,99.59239,-1.739,-0.532,31.05,0,109.5,13.57,-0.99,150.8
"2010-02-24 00:52:00",1708223,6.145,189.8,6.532,1.164,2.16,99.58616,-1.754,-0.584,30.64,0,109.5,13.57,-1.01,151.8
"2010-02-24 00:52:30",1708224,6.485,194.2,5.595,1.047,3.419,99.58078,-1.768,-0.534,30.35,0,109.5,13.58,-1.02,156.2
"2010-02-24 00:53:00",1708225,6.525,199.1,5.817,1.012,4.293,99.57625,-1.78,-0.4,30.64,0,109.5,13.58,-1.03,161.1
"2010-02-24 00:53:30",1708226,6.462,194.5,5.466,1.085,3.763,99.58018,-1.77,-0.422,30.88,0,109.5,13.58,-1.02,156.5
"2010-02-24 00:54:00",1708227,6.337,194.9,5.331,1.099,3.685,99.57848,-1.774,-0.531,30.43,0,109.5,13.58,-1.03,156.9
"2010-02-24 00:54:30",1708228,6.161,195.3,6.021,1.156,3.204,99.57761,-1.776,-0.481,30.39,0,109.5,13.59,-1.03,157.3
"2010-02-24 00:55:00",1708229,5.971,193.6,6.151,1.202,2.553,99.57561,-1.781,-0.565,30.27,0,109.5,13.59,-1.04,155.6
"2010-02-24 00:55:30",1708230,6.805,199.2,5.025,0.843,4.199,99.5773,-1.777,-0.515,30.47,0,109.5,13.59,-1.03,161.2
"2010-02-24 00:56:00",1708231,6.412,198,5.556,1.146,3.555,99.57899,-1.773,-0.513,30.84,0,109.5,13.59,-1.03,160.0
"2010-02-24 00:56:30",1708232,6.613,197.9,5.545,1.052,3.776,99.5821,-1.765,-0.465,30.68,0,109.5,13.59,-1.02,159.9
"2010-02-24 00:57:00",1708233,6.778,198.4,5.281,1.099,3.746,99.58323,-1.762,-0.506,30.28,0,109.5,13.59,-1.02,160.4
"2010-02-24 00:57:30",1708234,6.792,200,5.066,1.131,4.054,99.5835,-1.761,-0.502,31.02,0,109.5,13.59,-1.02,162.0
"2010-02-24 00:58:00",1708235,7.03,200.4,5.472,0.941,4.578,99.58379,-1.76,-0.455,31.83,0,109.5,13.59,-1.01,162.4
"2010-02-24 00:58:30",1708236,7.178,202.1,4.59,0.842,4.164,99.58463,-1.758,-0.514,31.93,0,109.5,13.6,-1.01,164.1
"2010-02-24 00:59:00",1708237,6.412,199.3,6.207,1.161,3.226,99.58717,-1.752,-0.5,31.82,0,109.5,13.6,-1.01,161.3
"2010-02-24 00:59:30",1708238,6.725,199.2,5.657,1.043,3.321,99.58746,-1.751,-0.539,31.31,0,109.5,13.6,-1.01,161.2
"2010-02-24 01:00:00",1708239,6.343,199.1,6.069,1.181,2.929,99.59056,-1.743,-0.572,30.86,0,109.5,13.6,-1.00,161.1
"2010-02-24 01:00:30",1708240,6.564,199.7,5.885,1.139,3.542,99.59338,-1.736,-0.507,30.79,0,109.5,13.6,-0.99,161.7
"2010-02-24 01:01:00",1708241,7.075,202.2,4.56,0.761,4.605,99.59593,-1.73,-0.432,30.62,0,109.5,13.6,-0.98,164.2
"2010-02-24 01:01:30",1708242,7.146,201.8,2.67,0.603,4.822,99.59536,-1.731,-0.404,30.38,0,109.5,13.6,-0.99,163.8
"2010-02-24 01:02:00",1708243,7.116,201.1,4.261,0.743,4.208,99.59763,-1.725,-0.5,30.19,0,109.5,13.6,-0.98,163.1
"2010-02-24 01:02:30",1708244,6.086,197.5,6.09,1.195,2.508,99.60103,-1.717,-0.474,30.1,0,109.5,13.6,-0.97,159.5
"2010-02-24 01:03:00",1708245,5.521,196.6,5.134,1.036,1.428,99.60131,-1.716,-0.544,30,0,109.5,13.6,-0.97,158.6
"2010-02-24 01:03:30",1708246,6.726,202.8,5.655,0.982,3.707,99.60584,-1.704,-0.519,29.85,0,109.5,13.6,-0.96,164.8
"2010-02-24 01:04:00",1708247,6.4,203.6,5.489,1.198,3.658,99.60669,-1.702,-0.437,29.8,0,109.5,13.6,-0.96,165.6
"2010-02-24 01:04:30",1708248,7.146,209,3.144,0.661,4.61,99.60641,-1.703,-0.413,29.77,0,109.5,13.6,-0.96,171.0
"2010-02-24 01:05:00",1708249,7.05,210.8,4.211,0.486,4.928,99.60697,-1.701,-0.401,29.79,0,109.5,13.6,-0.96,172.8
"2010-02-24 01:05:30",1708250,6.287,205,6.943,1.053,3.63,99.60641,-1.703,-0.474,29.87,0,109.5,13.6,-0.96,167.0
"2010-02-24 01:06:00",1708251,5.777,208.1,5.56,1.096,2.678,99.60839,-1.698,-0.491,29.85,0,109.5,13.6,-0.95,170.1
"2010-02-24 01:06:30",1708252,5.086,204.1,5.519,0.921,0.973,99.60726,-1.701,-0.557,30.17,0,109.5,13.6,-0.95,166.1
"2010-02-24 01:07:00",1708253,6.289,210.8,7.255,1.229,3.766,99.61065,-1.692,-0.429,30.29,0,109.5,13.6,-0.95,172.8
"2010-02-24 01:07:30",1708254,6.954,217,4.771,0.54,5.519,99.61235,-1.688,-0.392,30.9,0,109.5,13.6,-0.94,179.0
"2010-02-24 01:08:00",1708255,6.905,214.8,4.332,0.763,5.266,99.61575,-1.679,-0.357,30.88,0,109.5,13.6,-0.93,176.8
"2010-02-24 01:08:30",1708256,6.947,210.9,4.143,0.548,4.868,99.62141,-1.665,-0.375,29.94,0,109.5,13.6,-0.92,172.9
"2010-02-24 01:09:00",1708257,5.714,204.3,5.664,1.185,2.505,99.62395,-1.658,-0.456,29.48,0,109.5,13.6,-0.91,166.3
"2010-02-24 01:09:30",1708258,6.354,209.6,5.163,1.011,3.545,99.62622,-1.652,-0.475,29.38,0,109.5,13.6,-0.91,171.6
"2010-02-24 01:10:00",1708259,4.921,201.8,4.548,0.992,0.902,99.62764,-1.649,-0.563,29.31,0,109.5,13.6,-0.90,163.8
"2010-02-24 01:10:30",1708260,6.33,211.6,5.974,0.994,4.344,99.62622,-1.652,-0.386,29.73,0,109.5,13.6,-0.91,173.6
"2010-02-24 01:11:00",1708261,6.395,212.3,6.79,0.956,4.735,99.62792,-1.648,-0.413,29.77,0,109.5,13.61,-0.90,174.3
"2010-02-24 01:11:30",1708262,6.548,210.6,4.783,0.86,4.731,99.62933,-1.644,-0.371,29.35,0,109.4,13.61,-0.90,172.6
"2010-02-24 01:12:00",1708263,6.701,214.9,4.927,0.905,4.31,99.63158,-1.639,-0.352,29.1,0,109.5,13.61,-0.89,176.9
"2010-02-24 01:12:30",1708264,6.467,219.9,5.311,0.758,5.122,99.63469,-1.631,-0.31,29.65,0,109.5,13.61,-0.88,181.9
"2010-02-24 01:13:00",1708265,6.623,210,5.521,0.825,3.87,99.63836,-1.621,-0.366,29.88,0,109.5,13.61,-0.88,172.0
"2010-02-24 01:13:30",1708266,5.308,205,5.342,1.075,1.218,99.63977,-1.618,-0.5,29.37,0,109.5,13.61,-0.87,167.0
"2010-02-24 01:14:00",1708267,5.109,203.6,4.5,0.943,0.59,99.64175,-1.613,-0.601,29.17,0,109.5,13.61,-0.87,165.6
"2010-02-24 01:14:30",1708268,5.932,207.3,5.986,1.212,2.598,99.64796,-1.597,-0.361,29.78,0,109.5,13.62,-0.85,169.3
"2010-02-24 01:15:00",1708269,7.059,212.8,3.37,0.605,4.883,99.64937,-1.593,-0.293,30.68,0,109.4,13.62,-0.85,174.8
"2010-02-24 01:15:30",1708270,7.015,212.8,3.285,0.66,5.204,99.65022,-1.591,-0.29,31.04,0,109.5,13.62,-0.84,174.8
"2010-02-24 01:16:00",1708271,6.875,212.7,3.855,0.663,5.01,99.65332,-1.583,-0.303,30.91,0,109.5,13.62,-0.84,174.7
"2010-02-24 01:16:30",1708272,6.778,212.8,3.431,0.663,4.657,99.65219,-1.586,-0.287,30.47,0,109.4,13.62,-0.84,174.8
"2010-02-24 01:17:00",1708273,6.764,215.2,3.076,0.527,4.389,99.65247,-1.585,-0.338,29.71,0,109.4,13.62,-0.84,177.2
"2010-02-24 01:17:30",1708274,4.643,203.1,0.975,0.428,0.177,99.65275,-1.585,-0.466,29.27,0,109.4,13.62,-0.84,165.1
"2010-02-24 01:18:00",1708275,5.933,209,6.392,1.217,2.077,99.65304,-1.584,-0.502,29.35,0,109.4,13.62,-0.84,171.0
"2010-02-24 01:18:30",1708276,6.165,210,6.15,1.17,3.013,99.65388,-1.582,-0.396,29.62,0,109.4,13.62,-0.84,172.0
"2010-02-24 01:19:00",1708277,6.841,213.7,2.882,0.663,4.854,99.65332,-1.583,-0.283,30.05,0,109.4,13.62,-0.84,175.7
"2010-02-24 01:19:30",1708278,6.801,212.9,2.927,0.868,4.736,99.65444,-1.58,-0.264,30.29,0,109.4,13.62,-0.83,174.9
"2010-02-24 01:20:00",1708279,6.9,212.7,2.665,0.735,4.706,99.65698,-1.574,-0.276,30.74,0,109.4,13.62,-0.83,174.7
"2010-02-24 01:20:30",1708280,5.676,205.2,5.719,1.146,2.187,99.6584,-1.57,-0.415,30.82,0,109.4,13.62,-0.82,167.2
"2010-02-24 01:21:00",1708281,6.52,208.9,5.787,1.1,3.634,99.6584,-1.57,-0.346,30.72,0,109.4,13.62,-0.82,170.9
"2010-02-24 01:21:30",1708282,5.906,204.6,5.54,1.135,2.671,99.66009,-1.566,-0.367,30.66,0,109.4,13.62,-0.82,166.6
"2010-02-24 01:22:00",1708283,6.994,213,4.334,0.894,4.778,99.65981,-1.567,-0.246,30.63,0,109.4,13.62,-0.82,175.0
"2010-02-24 01:22:30",1708284,6.621,215,6.018,0.988,4.277,99.66009,-1.566,-0.32,29.89,0,109.4,13.62,-0.82,177.0
"2010-02-24 01:23:00",1708285,6.087,223.5,6.897,1.267,3.763,99.66009,-1.566,-0.322,29.88,0,109.4,13.62,-0.82,185.5
"2010-02-24 01:23:30",1708286,6.21,211.8,7.774,1.111,4.115,99.66009,-1.566,-0.348,31,0,109.4,13.62,-0.82,173.8
"2010-02-24 01:24:00",1708287,6.386,212.9,8.45,1.12,4.208,99.66009,-1.566,-0.314,30.55,0,109.4,13.62,-0.82,174.9
"2010-02-24 01:24:30",1708288,6.979,212.1,3.626,0.559,5.092,99.66009,-1.566,-0.266,30.04,0,109.4,13.62,-0.82,174.1
"2010-02-24 01:25:00",1708289,6.4,209.5,5.596,1.101,3.335,99.66009,-1.566,-0.379,30.19,0,109.4,13.62,-0.82,171.5
"2010-02-24 01:25:30",1708290,5.953,207.8,6.018,1.192,2.434,99.66009,-1.566,-0.396,30.57,0,109.4,13.62,-0.82,169.8
"2010-02-24 01:26:00",1708291,6.389,212.7,6.287,1.024,3.934,99.66009,-1.566,-0.319,30.88,0,109.4,13.62,-0.82,174.7
"2010-02-24 01:26:30",1708292,6.326,209.7,6.022,1.109,4.021,99.66009,-1.566,-0.316,30.66,0,109.4,13.62,-0.82,171.7
"2010-02-24 01:27:00",1708293,6.438,210.6,5.688,1.068,3.998,99.66009,-1.566,-0.268,30.84,0,109.4,13.62,-0.82,172.6
"2010-02-24 01:27:30",1708294,6.814,212.4,3.895,0.755,4.823,99.66038,-1.565,-0.218,31.46,0,109.4,13.62,-0.82,174.4
"2010-02-24 01:28:00",1708295,6.366,209.5,5.767,1.054,4.082,99.66009,-1.566,-0.241,32.08,0,109.4,13.62,-0.82,171.5
"2010-02-24 01:28:30",1708296,6.216,209.6,5.292,1.116,3.378,99.66009,-1.566,-0.307,32.38,0,109.4,13.63,-0.82,171.6
"2010-02-24 01:29:00",1708297,6.501,210.3,5.352,1.068,3.47,99.66122,-1.563,-0.28,32.48,0,109.4,13.63,-0.82,172.3
"2010-02-24 01:29:30",1708298,6.447,208.6,6.119,1.165,3.767,99.66093,-1.564,-0.333,32.39,0,109.4,13.63,-0.82,170.6
"2010-02-24 01:30:00",1708299,6.657,206.5,5.897,1.118,4.143,99.66151,-1.562,-0.253,32.61,0,109.4,13.63,-0.82,168.5
"2010-02-24 01:30:30",1708300,6.861,207.8,5.229,0.86,4.98,99.66208,-1.561,-0.199,32.52,0,109.4,13.63,-0.81,169.8
"2010-02-24 01:31:00",1708301,6.97,210.2,1.854,0.744,5.019,99.66208,-1.561,-0.211,32.02,0,109.4,13.63,-0.81,172.2
"2010-02-24 01:31:30",1708302,6.312,206.9,5.763,1.113,3.917,99.66293,-1.559,-0.212,31.84,0,109.4,13.63,-0.81,168.9
"2010-02-24 01:32:00",1708303,6.418,207.2,5.613,1.069,3.163,99.66122,-1.563,-0.354,31.7,0,109.4,13.63,-0.82,169.2
"2010-02-24 01:32:30",1708304,5.449,200.9,4.931,1.031,1.826,99.66122,-1.563,-0.374,32.04,0,109.4,13.63,-0.82,162.9
"2010-02-24 01:33:00",1708305,6.738,204.8,5.663,1.084,3.849,99.66179,-1.562,-0.249,32.39,0,109.4,13.63,-0.82,166.8
"2010-02-24 01:33:30",1708306,7.303,208.3,2.509,0.695,4.938,99.66179,-1.562,-0.242,32.58,0,109.4,13.63,-0.82,170.3
"2010-02-24 01:34:00",1708307,7.431,207.7,3.375,0.631,5.178,99.66009,-1.566,-0.187,33.16,0,109.4,13.63,-0.82,169.7
"2010-02-24 01:34:30",1708308,7.41,207.3,4.36,0.547,4.88,99.66009,-1.566,-0.196,33.6,0,109.4,13.63,-0.82,169.3
"2010-02-24 01:35:00",1708309,6.986,208.4,3.804,0.865,4.441,99.66009,-1.566,-0.253,33.69,0,109.4,13.63,-0.82,170.4
"2010-02-24 01:35:30",1708310,6.062,206.9,6.361,1.218,2.736,99.66009,-1.566,-0.24,33.83,0,109.4,13.63,-0.82,168.9
"2010-02-24 01:36:00",1708311,4.804,200.5,2.226,0.041,0.46,99.66009,-1.566,-0.366,33.79,0,109.4,13.63,-0.82,162.5
"2010-02-24 01:36:30",1708312,6.744,211.5,4.186,0.771,4.059,99.66038,-1.565,-0.279,34.11,0,109.4,13.63,-0.82,173.5
"2010-02-24 01:37:00",1708313,6.653,209.9,5.239,0.969,4.005,99.66009,-1.566,-0.259,34.51,0,109.4,13.63,-0.82,171.9
"2010-02-24 01:37:30",1708314,6.479,211.5,4.341,0.978,4.349,99.66009,-1.566,-0.221,35.17,0,109.4,13.63,-0.82,173.5
"2010-02-24 01:38:00",1708315,6.649,211.6,4.381,0.916,4.477,99.66038,-1.565,-0.219,35.02,0,109.4,13.63,-0.82,173.6
"2010-02-24 01:38:30",1708316,7.043,213.1,2.673,0.639,4.507,99.66065,-1.565,-0.201,35.34,0,109.4,13.63,-0.82,175.1
"2010-02-24 01:39:00",1708317,7.218,212.8,3.231,0.622,4.523,99.66038,-1.565,-0.18,35.96,0,109.4,13.63,-0.82,174.8
"2010-02-24 01:39:30",1708318,7.209,212.9,3.166,0.67,4.468,99.66065,-1.565,-0.2,36.54,0,109.4,13.63,-0.82,174.9
"2010-02-24 01:40:00",1708319,7.183,210.3,3.519,0.655,3.987,99.66178,-1.562,-0.219,36.57,0,109.4,13.62,-0.82,172.3
"2010-02-24 01:40:30",1708320,7.284,206.8,3.696,0.617,4.132,99.6615,-1.562,-0.213,36.49,0,109.4,13.62,-0.82,168.8
"2010-02-24 01:41:00",1708321,6.911,202.1,5.296,1.012,3.039,99.66432,-1.555,-0.268,36.25,0,109.4,13.62,-0.81,164.1
"2010-02-24 01:41:30",1708322,5.756,196.1,4.745,0.896,0.762,99.66263,-1.56,-0.423,35.61,0,109.4,13.62,-0.81,158.1
"2010-02-24 01:42:00",1708323,6.795,204.8,6.795,1.079,3.287,99.66376,-1.557,-0.336,35.33,0,109.4,13.63,-0.81,166.8
"2010-02-24 01:42:30",1708324,6.559,210.2,6.309,1.057,3.812,99.66376,-1.557,-0.283,35.19,0,109.4,13.63,-0.81,172.2
"2010-02-24 01:43:00",1708325,7.261,212.4,3.523,0.616,5.06,99.6663,-1.55,-0.233,35.06,0,109.4,13.63,-0.80,174.4
"2010-02-24 01:43:30",1708326,7.366,214.2,5.634,0.727,5.348,99.6663,-1.55,-0.226,35.15,0,109.3,13.63,-0.80,176.2
"2010-02-24 01:44:00",1708327,6.51,211.6,7.081,1.118,4.582,99.66828,-1.545,-0.295,35.11,0,109.4,13.63,-0.80,173.6
"2010-02-24 01:44:30",1708328,6.304,209.5,5.829,1.235,2.888,99.66856,-1.544,-0.295,35.45,0,109.4,13.63,-0.80,171.5
"2010-02-24 01:45:00",1708329,7.104,213.3,4.944,0.935,4.406,99.66828,-1.545,-0.314,36.56,0,109.4,13.63,-0.80,175.3